Find Starlink 30171

NORAD ID: 57469 Int'l Des: 2023-107 Owner: SPXS Country: US Constellation: starlink operational
LEOCIRCULAR

当前视图

正在加载3D地球...

About Starlink 30171

Starlink 30171 (NORAD 57469) is a starlink constellation satellite (v2 mini) launched Jul 28, 2023 by SPXS of US. It operates in LEO, CIRCULAR orbit with a mass of 730.00 kg.

即将过境

Passes for default location (London). Set your location on the main map for personalized predictions.

高度历史

Loading altitude history...

两行轨道根数

1 57469U 23107N 26237.68600071 .00000528 00000-0 28716-4 0 9995
2 57469 43.0069 105.0504 0001652 259.1110 100.9556 15.27576652170957
Epoch: Aug 25, 2026 • Age: 11 hours

当前状态

高度 487.2 km
远地点 / 近地点 N/A
速度 7.63 km/s
星下点 42.83°N, 168.65°E
发射日期 Jul 28, 2023
运行时间 3 years
类型 internet

技术详情

分类 Payload
质量 730.00 kg
干质量 700.00 kg
总质量 730.00 kg
长度 0.30 m
直径 4.10 m
跨度 29.00 m
形状 Box + pan
制造商 SPXS
平台类型 Starlink V2M
阶段状态 In Orbit
所有者/国家 SPXS/US

Most Searched